Flag for U.S.A. Weather past 2 weeks in Cape Coral, Florida, U.S.A.

Now
69 °F

Passing clouds.


Feels Like: 69 °F
Forecast: 72 / 86 °F
Wind: 3 mph from East

Location: Page Field

Current Time: Jun 3, 2015 at 7:40:53 AM

Latest Report: Jun 3, 2015 at 6:53 AM


Visibility: 10 mi

Pressure: 29.93 "Hg

Humidity: 96%

Dew point: 68 °F

Location of Cape CoralLocation

Historic Weather in Cape Coral — Graph

°F

Cape Coral temperature yesterday

Maximum temperature yesterday: 83 °F (at 3:53 PM)
Minimum temperature yesterday: 69 °F (at 6:53 PM)
Average temperature yesterday: 75 °F

Past Weeks' High & Low Weather Summary

 TemperatureHumidityPressure
High93 °F (May 22, 1:53 PM)100% (May 24, 3:53 AM)30.20 "Hg (May 24, 3:53 AM)
Low67 °F (May 29, 4:53 AM)32% (May 27, 4:53 PM)29.92 "Hg (Jun 3, 5:53 AM)
Average80 °F73%30.06 "Hg
* Reported May 19 5:53 AM — Jun 3 5:53 AM, Cape Coral, Weather by CustomWeather, © 2015

Note: Actual official high and low records may vary slightly from our data, if they occured in-between our weather recording intervals... More about our weather records

Advertising

Cape Coral weather history for previous 24 hours

 ConditionsComfort  
Time TempWeatherWind HumidityBarometerVisibility
5:53 AM
Wed, Jun 3
69 °FMostly cloudy.8 mph96%29.92 "Hg10 mi
4:53 AM69 °FMostly cloudy.6 mph100%29.93 "Hg10 mi
3:53 AM70 °FMostly cloudy.3 mph97%29.94 "Hg10 mi
2:53 AM71 °FMostly cloudy.6 mph93%29.95 "Hg10 mi
12:53 AM70 °FMostly cloudy.3 mph97%29.96 "Hg10 mi
10:53 PM
Tue, Jun 2
70 °FMostly cloudy.7 mph97%29.96 "Hg10 mi
9:53 PM70 °FOvercast.5 mph97%29.98 "Hg10 mi
8:53 PM70 °FLow clouds.6 mph97%29.98 "Hg10 mi
7:53 PM69 °FLight rain. Mostly cloudy.7 mph96%29.98 "Hg9 mi
6:53 PM69 °FRain. Fog.3 mph96%29.98 "Hg2 mi
5:53 PM79 °FThundershowers. Partly sunny.12 mph77%29.96 "Hg10 mi
4:53 PM80 °FMore clouds than sun.13 mph76%29.94 "Hg10 mi
3:53 PM83 °FPassing clouds.6 mph55%29.96 "Hg10 mi
2:53 PM82 °FLight rain. Mostly cloudy.3 mph70%29.98 "Hg10 mi
1:53 PM81 °FOvercast.5 mph74%30.01 "Hg10 mi
12:53 PM80 °FPartly sunny.6 mph76%30.01 "Hg10 mi
11:53 AM79 °FSunny.7 mph79%30.01 "Hg10 mi
10:53 AM79 °FPartly sunny.6 mph79%30.02 "Hg10 mi
9:53 AM77 °FSunny.8 mph85%30.02 "Hg10 mi
8:53 AM74 °FSunny.3 mph94%30.01 "Hg10 mi
7:53 AM73 °FSunny.3 mph94%30.01 "Hg10 mi
Weather by CustomWeather, © 2015

See weather overviewHow to use our weather pages